Regional Weather Roundup
Issued by NWS

Home | Current Version | Previous Version | Graphics & Text | Print | Product List | Glossary On
Versions: 1 2 3 4 5 6 7 8 9 10 11 12 13 14 15 16 17 18 19 20 21 22 23 24 25 26 27 28 29 30 31 32 33 34 35 36 37 38 39 40 41 42 43 44 45 46 47 48 49 50
984
ASUS45 KTFX 251210
RWRMT
MONTANA REGIONAL WEATHER ROUNDUP
NATIONAL WEATHER SERVICE GREAT FALLS MT
600 AM MDT TUE APR 25 2017

NOTE: "FAIR" INDICATES FEW OR NO CLOUDS BELOW 12000 FEET WITH NO
SIGNIFICANT WEATHER AND/OR OBSTRUCTIONS TO VISIBILITY.

MTZ001>007-043-251300-
WEST OF THE DIVIDE

CITY           SKY/WX    TMP DP  RH WIND       PRES   REMARKS
KALISPELL      CLOUDY    40  40 100 SE5       29.78R
MISSOULA       PTCLDY    38  36  92 N3        29.82R
BUTTE          CLOUDY    36  32  85 W9        29.73R WCI  29
MULLAN PASS    FOG       31  30  96 VRB5      29.78R VSB 1/2
ANACONDA         N/A     36  34  93 CALM      29.75R
DEER LODGE       N/A     39  34  81 NW10      29.78R
EUREKA           N/A     39  37  93 E5        29.77R
HAMILTON         N/A     37  37 100 CALM      29.81R
PLAINS           N/A     40  36  86 CALM      29.83R
$$

MTZ008-052>055-251300-
SOUTHWEST MONTANA

CITY           SKY/WX    TMP DP  RH WIND       PRES   REMARKS
BOZEMAN        LGT RAIN  38  36  92 S10       29.70R WCI  31
DILLON         CLOUDY    35  32  88 S8        29.71R WCI  29
W YELLOWSTONE  FLURRIES  32  32 100 CALM      29.65S
ENNIS          CLOUDY    37  36  93 NW15      29.72R WCI  28
THREE FORKS      N/A     42  42 100 CALM      29.74R
TWIN BRIDGES     N/A     38  32  79 NW3       29.73R
$$

MTZ009-010-012-014-046-048-049-054-251300-
EAST SLOPES AND CENTRAL MONTANA

CITY           SKY/WX    TMP DP  RH WIND       PRES   REMARKS
CUT BANK       CLOUDY    36  35  96 N6        29.75S WCI  31
GREAT FALLS    CLOUDY    40  38  93 N5        29.75R
MALMSTROM AFB  CLOUDY    40  39  98 CALM      29.75R
HELENA         CLOUDY    42  38  85 NW5       29.73R
AUGUSTA        MOCLDY    36  36 100 N9        29.74R WCI  29
BOWMANS CRNR   CLOUDY    36  35  94 NE3       29.73R
CHOTEAU          N/A     37  37 100 N7        29.77R
FAIRFIELD      CLOUDY    38  36  91 N7        29.74R
POWER          FOG       38  37  99 N6        29.74R VSB 3/8
RAYNESFORD     CLOUDY    39  37  94 CALM      29.74R
ULM            CLOUDY    40  39  97 NW5       29.75R
$$

MTZ011-013-016-021-045-047-050-051-251300-
NORTH CENTRAL MONTANA

CITY           SKY/WX    TMP DP  RH WIND       PRES   REMARKS
HAVRE          CLOUDY    32  28  85 E23       29.81R WCI  19
LEWISTOWN      FOG       31  30  96 E14       29.74S VSB 1/2 WCI  21
CHINOOK          N/A     30  27  86 E12       29.85R WCI  21
DENTON         LGT SNOW  32  32  99 MISG      29.73R VSB 5/8
FORT BENTON      N/A     37  34  87 MISG      29.78R
GEYSER           N/A     36  35  98 E8        29.74R FOG     WCI  29
GRASS RANGE    FOG       31  31 100 NE6       29.75R VSB 3/8 WCI  25
JUDITH GAP     LGT RAIN  35  34  97 S13       29.72R FOG     WCI  26
STANFORD       LGT RAIN  35  35 100 E5        29.73R FOG
WINIFRED       FOG       30 N/A N/A E17       29.76R VSB 1/2 WCI  18
$$

MTZ017>020-022>027-061-062-251300-
NORTHEAST MONTANA

CITY           SKY/WX    TMP DP  RH WIND       PRES   REMARKS
GLASGOW        CLOUDY    30  24  78 E12       29.88R WCI  20
JORDAN           N/A     29  24  82 NE12      29.82F WCI  19
SIDNEY         CLOUDY    30  24  78 NE14      29.86S WCI  19
WOLF POINT     CLOUDY    32  25  75 E12       29.89R WCI  23
MALTA          CLOUDY    30  25  80 E12       29.88R WCI  21
PLENTYWOOD       N/A     27  25  93 NE12      29.91R WCI  16
POPLAR           N/A     30  25  80 NE14      29.90R WCI  20
SCOBEY           N/A     27  19  71 NE9       29.89R WCI  18
$$

MTZ028>42-056>058-251300-
SOUTHCENTRAL AND SOUTHEAST MONTANA

CITY           SKY/WX    TMP DP  RH WIND       PRES   REMARKS
BAKER          LGT SNOW  29  26  89 NE13      29.76R FOG     WCI  19
BILLINGS       CLOUDY    33  32  96 NE16      29.73R WCI  23
LIVINGSTON     MIX PCPN  33  33 100 N5        29.70R VSB 3/4
MILES CITY     CLOUDY    32  26  78 NE15      29.78R WCI  22
BIG TIMBER     FOG       37  37 100 NE10      29.74R VSB 1/2 WCI  30
EKALAKA          N/A     26  23  88 NE7       29.71R WCI  18
LAUREL           N/A     35  26  70 NE13      29.74R WCI  26
ROUNDUP          N/A     32  28  85 N10       29.71R WCI  24
$$

REGIONAL REPORTS...DAKOTAS

CITY           SKY/WX    TMP DP  RH WIND       PRES   REMARKS
WILLISTON      CLOUDY    30  22  72 NE12      29.89R WCI  20
MINOT          CLOUDY    30  23  75 N17       29.87R WCI  18
DICKINSON      CLOUDY    27  24  89 NE16      29.76R WCI  15
BEACH          CLOUDY    27  27 100 NE13G18   29.81R FOG     WCI  16
TIOGA          CLOUDY    27  27 100 NE14      29.89R WCI  15
WATFORD CITY     N/A     28  21  74 NE18      29.85S WCI  16
BISMARCK       CLOUDY    31  27  85 N17       29.81R WCI  19
GRAND FORKS    CLOUDY    32  29  88 N21       29.77R WCI  20
FARGO          CLOUDY    33  31  92 N22G29    29.69R WCI  21
BUFFALO SD       N/A     30  27  88 NE16      29.64R WCI  19
RAPID CITY     LGT SNOW  32  30  92 NE15      29.65R FOG     WCI  22
$$

REGIONAL REPORTS...WYOMING/IDAHO/WASHINGTON

CITY           SKY/WX    TMP DP  RH WIND       PRES   REMARKS
GILLETTE       CLOUDY    33  50 100 NE18      29.53R WCI  22
SHERIDAN       SNOW      33  32  96 NW13      29.67R VSB 1/2 WCI  24
CODY           LGT RAIN  37  33  85 N12       29.66R WCI  29
YELLOWSTONE LA   N/A     28  27  96 CALM      29.65S
IDAHO FALLS    CLOUDY    37  36  96 SW15      29.70R WCI  28
SALMON         CLOUDY    36  34  93 N5        29.77R
BOISE          CLOUDY    43  36  76 NW12      29.86R
SPOKANE        CLOUDY    42  40  92 SW12      29.83R
$$

REGIONAL REPORTS...ALBERTA

CITY           SKY/WX    TMP DP  RH WIND       PRES   REMARKS
EDMONTON       CLOUDY    32  30  93 NW5       29.89R
CALGARY        LGT SNOW  28  27  93 N14       29.82S VSB 1   WCI  17
LETHBRIDGE     LGT RAIN  37  36  93 S7        29.77R FOG
MEDICINE HAT   CLOUDY    34  30  86 E9        29.82R WCI  26
WATERTON GATE    N/A     34  34 100 CALM        N/A
MILK RIVER       N/A     36  34  93 E7          N/A  WCI  30
ONEFOUR          N/A     30  28  93 E14         N/A  WCI  20
$$

REGIONAL REPORTS...SASKATCHEWAN

CITY           SKY/WX    TMP DP  RH WIND       PRES   REMARKS
SWIFT CURRENT  CLOUDY    27  25  93 E9        29.90R WCI  17
REGINA         CLOUDY    25  18  74 NE15      29.98R WCI  12
SASKATOON      MOCLDY    27  21  80 E12       30.04R WCI  16
CYPRESS HILLS    N/A     25  23  93 SE6         N/A  WCI  18
VAL MARIE        N/A     28  23  80 E9          N/A  WCI  20
ROCKGLEN         N/A     25  25 100 NE3         N/A
ASSINIBOIA       N/A     34  30  86 SE8         N/A  WCI  27
$$




USA.gov is the U.S. government's official web portal to all federal, state and local government web resources and services.